COSMOS 1275 DEB, 13026

Orbit data source: Space-Track

COSMOS 1275 DEB, 13026 is space debris in LEO originally from a launch on Thu, 04 Jun 1981 UTC launched from the Plesetsk Missile And Space Complex (PKMTR). Debris objects in space refer to the collection of defunct objects orbiting the Earth. Examples of debris include non-operational satellites, rocket bodies, and fragments generated from explosions, collisions, or faulty payload assembly.

Loading next visibility...
Identifier
13026, 1981-053EX
Orbit
LEO
Country
Flag of CISCIS
Related business
Manufacturer
Unknown
Mission
Spacecraft
Bus & Motor
Unknown
Mass
Unknown
Launch date (UTC)
1981-06-04 (45 years ago)
Launch vehicle
Unknown
Launch site
Plesetsk Missile And Space Complex (PKMTR)
Object type
Payload
Rocket body
Debris
Shape & HBR
Unknown shape, 0.1 m
Radar Cross Section
Medium (>0.1 m² and <1 m²)

Expand to show TLE details & history
Last TLE update: 3 days ago

TLE from 3 days ago
0 COSMOS 1275 DEB
1 13026U 81053EX  26170.98867008  .00022375  00000-0  23162-2 0  9996
2 13026  82.9135 177.4766 0009032 120.4240 239.7874 14.89921236296021
Epoch: 2026-06-19T23:43Z
TLE epoch observation values (Epoch: 2026-06-19T23:43:41.094Z)
Latitude
0.00002°
Longitude
-86.65437°
Altitude
604.415 km
Speed
7.556 km/s
True Right ascension
11h 49m 54s
True Declination
0° 00' 00"
Sunlit
Object was in daylight at epoch
Visualization orbit readout
Latitude
Unknown
Longitude
Unknown
Altitude
Unknown
Speed
Unknown
Apparent Right ascension
Unknown
Apparent Declination
Unknown
Sunlit
N/A
Visualization observer readout
Local Sidereal Time
23:26:52
Azimuth
Unknown
Elevation
Unknown
Doppler factor
Unknown
Orbital elements
Apogee altitude
601.473 km
Perigee altitude
588.876 km
Semi-major axis
6,973.311 km
Eccentricity
0.0009
Inclination
82.9135°
RAAN
177.4766°
Arg. of periapsis
120.424°
True anomaly
239.69801°
Mean anomaly
239.7874°
Eccentric anomaly
239.7427°
Mean motion
3.72722 °/min
Orbital period
96.59 mins
BSTAR
0.0023162
Loading maneuver chart data...
Computing Atmospheric mass density...

Documentation

Showing up to 5 results
|